Flag for United Kingdom Weather past 2 weeks in Belfast, Northern Ireland, United Kingdom

Now
55 °F

Passing clouds.


Feels Like: 53 °F
Forecast: 31 / 54 °F
Wind: 8 mph from Southeast

Location: Belfast / Harbour


UV Index: 3 (Moderate)

Visibility: N/A


Pressure: 30.18 "Hg

Humidity: 59%

Dew point: 41 °F

Location of BelfastLocation

Historic Weather in Belfast

°F

Belfast temperature yesterday

Maximum temperature yesterday: 54 °F (at 12:50 PM)
Minimum temperature yesterday: 46 °F (at 8:50 PM)
Average temperature yesterday: 50 °F

Past Weeks' High & Low Weather Summary

 TemperatureHumidityPressure
High61 °F (Apr 6, 4:20 PM)100% (Apr 4, 7:50 AM)30.39 "Hg (Apr 4, 7:50 AM)
Low37 °F (Apr 18, 6:20 AM)44% (Apr 6, 6:20 PM)29.42 "Hg (Apr 6, 9:20 AM)
Average51 °F74%29.98 "Hg
* Reported Apr 3 2:20 PM — Apr 18 2:20 PM, Belfast, Weather by CustomWeather, © 2014

Note: Actual official high and low records may vary slightly from our data, if they occured in-between our weather recording intervals... More about our weather records

Advertising

Historic Weather Conditions — Data for Previous 24 hours

 ConditionsComfort  
Time TempWeatherWind HumidityBarometerVisibility
2:20 PM
Apr 18
55 °FPassing clouds.12 mph55%30.18 "HgN/A
1:50 PM55 °FPassing clouds.13 mph59%30.18 "HgN/A
1:20 PM54 °FPassing clouds.10 mph58%30.18 "HgN/A
12:50 PM54 °FPassing clouds.9 mph58%30.21 "HgN/A
12:20 PM52 °FPassing clouds.8 mph58%30.21 "HgN/A
11:50 AM52 °FPassing clouds.7 mph58%30.21 "HgN/A
11:20 AM50 °FPassing clouds.8 mph62%30.21 "HgN/A
10:50 AM50 °FPassing clouds.6 mph67%30.21 "HgN/A
10:20 AM50 °FPassing clouds.5 mph67%30.21 "HgN/A
9:50 AM50 °FPassing clouds.3 mph67%30.21 "HgN/A
9:20 AM48 °FPassing clouds.2 mph71%30.21 "HgN/A
8:50 AM45 °FPassing clouds.2 mph81%30.21 "HgN/A
8:20 AM45 °FSunny.No wind76%30.21 "Hg10 mi
7:50 AM41 °FSunny.5 mph87%30.21 "Hg10 mi
7:20 AM39 °FSunny.5 mph87%30.21 "Hg10 mi
6:50 AM39 °FPassing clouds.5 mph87%30.21 "HgN/A
6:20 AM37 °FClear.2 mph87%30.21 "Hg10 mi
9:20 PM
Apr 17
46 °FPassing clouds.10 mph71%30.15 "HgN/A
8:50 PM46 °FSunny.10 mph71%30.15 "Hg10 mi
8:20 PM48 °FSunny.9 mph62%30.15 "Hg10 mi
7:50 PM48 °FPassing clouds.10 mph66%30.15 "HgN/A
7:20 PM50 °FPassing clouds.10 mph62%30.12 "HgN/A
6:50 PM52 °FPassing clouds.13 mph58%30.12 "HgN/A
5:50 PM52 °FScattered clouds.14 mph62%30.09 "HgN/A
5:20 PM54 °FScattered clouds.13 mph58%30.09 "HgN/A
4:50 PM54 °FScattered clouds.17 mph63%30.09 "HgN/A
4:20 PM52 °FScattered showers. Scattered clouds.13 mph72%30.09 "HgN/A
3:50 PM54 °FScattered clouds.15 mph72%30.09 "HgN/A
3:20 PM52 °FScattered clouds.15 mph77%30.09 "HgN/A
Weather by CustomWeather, © 2014

See weather overview